Other Public Products
Issued by NWS Grand Forks, ND

Home | Current Version | Previous Version | Text Only | Print | Product List | Glossary On
Versions: 1 2 3 4 5 6 7 8 9 10 11 12 13 14 15 16 17 18 19 20 21 22 23 24 25 26 27 28 29 30 31 32 33 34 35 36 37 38 39 40 41 42 43 44 45 46 47 48 49 50
000
FPUS83 KFGF 171610
OPUFGF
PRAIRIE TO PINES WEATHER ROUNDUP
NATIONAL WEATHER SERVICE EASTERN NORTH DAKOTA/GRAND FORKS ND
1100 AM CDT WED SEP 17 2014

 **SATELLITE DATA USED TO AUGMENT SKY COVER AT AUTOMATED STATIONS**
 *****  WEATHER ACROSS EASTERN NORTH DAKOTA  *****

CITY           SKY/WX    TMP DP  RH WIND       PRES   REMARKS
GRAND FORKS    MOSUNNY   59  50  72 N14       29.98R
GRAND FORKS AF SUNNY     56  50  80 NE14      30.00R
GRAND CITY NWS NOT AVBL
BUXTON         NOT AVBL
DEVILS LAKE    SUNNY     54  45  71 NE9       29.99R
FARGO          SUNNY     65  50  58 N6        29.95R
WAHPETON ARPT  SUNNY     61  50  67 N6        29.96R
$$

 *****  WEATHER ACROSS CENTRAL AND WESTERN NORTH DAKOTA  *****

CITY           SKY/WX    TMP DP  RH WIND       PRES   REMARKS
JAMESTOWN      SUNNY     63  50  62 N5        29.98R
BISMARCK       SUNNY     61  50  67 CALM      29.99R
MINOT          SUNNY     59  46  62 E7        29.99R
MINOT AFB      SUNNY     57  48  71 E6        29.99R
GARRISON         N/A     63  49  60 E6        29.98R
WILLISTON      SUNNY     62  44  51 CALM      29.96S
DICKINSON      SUNNY     65  49  56 SE8       29.97R
HETTINGER      MOSUNNY   64  51  62 E9        29.98S
$$

 *****  OTHER OBSERVATIONS NORTHEAST NORTH DAKOTA  *****

CITY           SKY/WX    TMP DP  RH WIND       PRES   REMARKS
WALHALLA         N/A     45  45 100 N13       30.06R
LANGDON        CLOUDY    46  45  93 NE15      30.03R
CAVALIER       CLOUDY    46  45  93 NE9       30.04R
GRAFTON        CLOUDY    48  48 100 N13       30.02R FOG
CANDO          CLOUDY    50  46  87 NE14      30.03R
FORT TOTTEN      N/A     58  50  74 NE6       29.95S
ROLLA          CLOUDY    45  45 100 NE12      30.05R
RUGBY          FAIR      52  46  82 E16       30.01R
 ***** THE ABOVE OBSERVATIONS ARE NON NWS ARE NOT QUALITY
        CONTROLLED AND MAY MIS-REPORT RAIN FOR SNOW...
$$

 *****  OTHER OBSERVATIONS SOUTHEAST NORTH DAKOTA *****

CITY           SKY/WX    TMP DP  RH WIND       PRES   REMARKS
COOPERSTOWN    NOT AVBL
VALLEY CITY    FAIR      63  48  59 N6        29.97S
OAKES            N/A     64  54  68 NE8       29.97S
GWINNER        SUNNY     63  50  63 NE7       29.98S
BUFFALO        NOT AVBL
WYNDMERE       NOT AVBL
 ***** THE ABOVE OBSERVATIONS ARE NON NWS ARE NOT QUALITY
       CONTROLLED AND MAY MIS-REPORT RAIN FOR SNOW...
$$

  *****  WEATHER ACROSS NORTHERN MINNESOTA  *****

CITY           SKY/WX    TMP DP  RH WIND       PRES   REMARKS
FLAG ISLAND    CLOUDY    45  39  81 NE12      30.04R
WARROAD        CLOUDY    48  45  87 NE12G20   30.03R
ROSEAU         CLOUDY    52  45  76 NE16      30.02R
HALLOCK          N/A     54  48  82 NE12      30.02R
THF RVR FALLS  MOSUNNY   57  50  77 NE13      29.98R
HALSTAD          N/A     63  45  51 N6          N/A
FOSSTON        SUNNY     64  46  52 N7        29.96R
BAUDETTE       PTSUNNY   54  44  69 E8        30.01R
WASKISH        CLOUDY    55  48  76 N5        29.98R
CROOKSTON      SUNNY     59  46  63 N7        29.97S
$$
  *****  WEATHER ACROSS CENTRAL AND WEST MINNESOTA  *****

CITY           SKY/WX    TMP DP  RH WIND       PRES   REMARKS
BEMIDJI        SUNNY     62  48  59 N3        29.96R
PARK RAPIDS    SUNNY     61  49  64 N5        29.95S
WADENA         SUNNY     63  54  72 NE7       29.95R
DETROIT LAKES  SUNNY     63  52  67 NE5       29.97R
MOORHEAD       SUNNY     63  54  72 CALM      29.96S
FERGUS FALLS   SUNNY     63  52  67 N5        29.95R
ELBOW LAKE     FAIR      62  53  73 CALM      29.95R
MORRIS MN      SUNNY     64  54  68 N5        29.93S
STAPLES        SUNNY     61  50  67 N5        29.95S
WHEATON        SUNNY     61  52  72 W6        29.97R
$$
  *****  WEATHER ELSEWHERE ACROSS MINNESOTA  *****

CITY           SKY/WX    TMP DP  RH WIND       PRES   REMARKS
DULUTH         MOSUNNY   64  46  52 W6        29.94S
INTRNTL FALLS  PTSUNNY   51  43  74 NE8       30.00R
ELY            CLOUDY    54  48  82 NE6       29.95S
CLOQUET        SUNNY     63  46  55 W5        29.95S
BRAINERD       SUNNY     62  51  67 N7        29.96R
HIBBING        CLOUDY    62  47  57 N3        29.94R
ALEXANDRIA     SUNNY     66  54  65 VRB5      29.95S
SAINT CLOUD    SUNNY     66  52  60 SW3       29.95S
MINNEAPOLIS    MOSUNNY   65  50  58 CALM      29.96R
$$

  *****  WEATHER ACROSS SOUTH DAKOTA  *****

CITY           SKY/WX    TMP DP  RH WIND       PRES   REMARKS
SIOUX FALLS    MOSUNNY   66  55  67 NE5       29.94R
BROOKINGS      NOT AVBL
WATERTOWN      SUNNY     66  54  65 N8        29.95R
HURON          SUNNY     64  55  72 CALM      29.94S
SISSETON         N/A     67  54  63 N12       29.94R
ABERDEEN       SUNNY     62  53  72 NE7       29.96S
MITCHELL       SUNNY     65  57  75 N3        29.94S
PIERRE         SUNNY     70  57  63 MISG      29.93R
MOBRIDGE       SUNNY     68  55  63 E7        29.94S
RAPID CITY     MOSUNNY   70  47  43 N7        29.98R
$$

  *****  SOME WEATHER IN NEARBY STATES *****

CITY           SKY/WX    TMP DP  RH WIND       PRES   REMARKS
GLASGOW MT     PTSUNNY   59  42  53 E17       29.88F
GREAT FALLS MT MOSUNNY   67  49  52 CALM      29.91S
CHEYENNE WY    MOSUNNY   75  42  30 VRB5      30.14S
SCOTTSBLUFF NE SUNNY     70  48  45 NW13      30.02R
OMAHA NE       MOSUNNY   68  58  70 SE3       29.94R
DES MOINES IA  MOSUNNY   67  57  70 SE3       29.97S
DAVENPORT IA   CLOUDY    62  50  64 S8        30.02S
CHICAGO IL     MOSUNNY   62  43  49 VRB3      30.03S
EAU CLAIRE WI  PTSUNNY   63  50  62 SW8       29.97S
LA CROSSE WI   MOSUNNY   61  50  67 S6        30.00S
$$

  *****  SOME NATIONAL WEATHER *****

CITY           SKY/WX    TMP DP  RH WIND       PRES   REMARKS
LA GUARDIA NY  MOSUNNY   70  40  33 VRB7      30.03F
RALEIGH NC     PTSUNNY   74  62  66 NE9G18    29.99F
ATLANTA GA     MOSUNNY   79  62  56 W9        29.97F
NEW ORLEANS LA PTSUNNY   84  72  67 N6        29.98S
OKLAHOMA CITY  PTSUNNY   84  68  58 SW12      29.96S
ALBUQUERQUE NM LGT RAIN  62  59  90 NW3       30.21R
SALT LAKE CITY MOSUNNY   79  44  28 SE14      29.98S
LOS ANGELES CA MOSUNNY   84  61  45 E5        29.75R
BOISE ID       CLOUDY    73  42  32 CALM      29.88R
SEATTLE WA     CLOUDY    62  56  80 N3        29.79S
$$

*** WEATHER ACROSS MANITOBA...SASKATCHEWAN AND ONTARIO ***
                ***ONTARIO***

CITY           SKY/WX    TMP DP  RH WIND       PRES   REMARKS
GERALDTON      PTSUNNY   37  30  75 NW6       30.06S
THUNDER BAY    CLOUDY    43  39  87 NE13      30.05R
SIOUX LOOKOUT  LGT RAIN  39  37  93 NE3       30.07S
TORONTO        MOSUNNY   64  46  52 W12       29.99F
BIG TROUT LK   CLOUDY    36  21  55 N7G18     30.11S
PICKLE LAKE    PTSUNNY   39  25  56 VRB3      30.10S
DRYDEN         CLOUDY    41  37  87 NE9       30.06R
KENORA         DRIZZLE   41  39  93 NE8       30.07R
$$
                *** MANITOBA***

CITY           SKY/WX    TMP DP  RH WIND       PRES   REMARKS
BRANDON        NOT AVBL
DAUPHIN        CLOUDY    43  39  87 E9        30.13R
ISLAND LAKE    PTSUNNY   39  23  52 NW6       30.19R
PILOT MOUND      N/A     45  41  87 NE12        N/A
THE PAS        PTSUNNY   41  34  75 SE7       30.17S
THOMPSON       MOSUNNY   37  25  60 NE2       30.20S
WINNIPEG       CLOUDY    43  39  87 NE12      30.10R
CHURCHILL      CLOUDY    32  23  69 NW14G24   30.14S WCI  22
GILLAM         CLOUDY    34  23  64 N14       30.18  WCI  24
$$
                ***SASKATCHEWAN***

CITY           SKY/WX    TMP DP  RH WIND       PRES   REMARKS
ESTEVAN        CLOUDY    46  46 100 E9        30.02R
KINDERSLEY     MOSUNNY   52  45  76 E13       29.91S
LLOYDMINSTER   CLOUDY    46  45  93 SE15      29.89S FOG
PRINCE ALBERT  NOT AVBL
REGINA         CLOUDY    48  46  93 E14G21    29.99S
YORKTON        CLOUDY    43  39  87 E13G18    30.08R
N. BATTLEFORD  CLOUDY    45  43  93 E16G23    29.98R FOG


USA.gov is the U.S. government's official web portal to all federal, state and local government web resources and services.